Location: Pompeys Pillar
(45.9913°N, 107.9528°W)
Time: 03:53:13
(UTC+00:00)

Tiros 1 - Pass Details

Date: 29 May 2022
Orbit: 629 x 663 km, 48.4° (Epoch: 30 June)

Event Time Altitude Azimuth Distance (km) Brightness Sun altitude
Rises 08:34:49 0° 262° (W) 2,913 - -19.6°
Reaches altitude 10° 08:37:08 10° 264° (W) 2,009 - -19.5°
Exits shadow 08:38:21 18° 266° (W) 1,548 8.8 -19.4°
Maximum altitude 08:41:45 72° 349° (N) 668 7.3 -19.2°
Drops below altitude 10° 08:46:24 10° 74° (ENE) 2,028 10.2 -18.9°
Sets 08:48:46 0° 77° (ENE) 2,943 11.1 -18.7°
